Theta_e
275 274 274 274 274 275 273 274 274 273 273 273 273 273 273 274 274 273 273 273 273 273 273 272 272 272 272 272 272 272 271 271 271 272 272 272 273 273 273 273 273 274 274 274 274 274 274 274 274 274 274 274 273 274 274 274 274 274 274 275 277 278
274 274 274 273 273 273 273 273 273 273 273 273 273 274 273 273 272 272 272 272 272 272 272 272 272 272 271 271 271 271 271 271 271 271 271 271 272 272 272 272 273 273 273 273 274 274 274 274 274 274 274 273 273 273 273 273 274 273 273 274 276 276
274 274 273 272 272 273 273 272 272 272 272 272 273 272 272 271 272 271 271 271 271 271 271 270 271 270 270 270 270 270 270 270 271 271 271 271 271 271 271 271 272 272 273 273 273 273 273 273 273 273 273 273 272 272 272 273 273 273 273 274 274 274
274 273 272 272 272 272 272 272 271 271 271 271 271 271 270 270 270 270 270 270 270 269 269 269 269 269 269 269 269 269 269 269 270 270 270 270 270 271 271 271 271 272 272 273 273 273 273 272 272 272 272 272 271 271 272 272 272 272 273 273 273 272
274 273 272 272 272 272 271 271 271 271 271 270 270 270 270 270 270 270 269 269 269 269 269 269 268 268 268 268 268 268 268 269 269 270 269 269 270 270 271 271 271 271 272 272 272 272 271 271 271 272 272 271 271 270 270 271 272 272 272 272 272 272
273 272 272 272 272 271 271 271 271 271 270 270 270 269 269 269 269 269 269 269 268 268 268 268 268 267 267 267 267 267 268 268 268 269 269 269 269 269 270 270 270 271 271 271 271 270 270 270 270 270 271 271 270 270 270 271 271 271 271 271 271 271
272 273 273 272 272 271 271 271 270 270 270 269 269 269 269 269 268 268 268 268 267 267 267 267 267 267 267 267 267 267 267 267 268 269 269 269 269 269 269 269 270 269 269 269 269 268 268 268 268 268 269 270 270 270 270 270 271 271 271 271 271 272
273 272 272 272 272 271 271 270 270 270 269 269 269 268 268 268 268 268 267 267 267 266 266 266 266 266 266 266 266 267 267 267 268 268 268 268 267 267 267 267 267 268 267 267 267 267 267 267 267 267 268 268 269 269 269 270 270 270 270 271 271 271
272 272 272 272 271 271 271 270 270 269 268 268 268 268 268 267 267 267 266 266 266 266 266 266 266 266 266 266 266 267 267 267 267 266 266 266 265 265 265 265 265 266 266 266 266 266 266 266 266 266 267 267 267 268 268 269 269 269 270 270 270 271
273 272 272 271 271 270 270 270 269 269 268 268 268 267 267 267 266 266 266 266 265 265 265 266 266 266 266 266 266 266 266 266 265 265 264 264 264 263 264 264 264 264 265 265 265 265 265 265 265 266 266 267 267 268 268 268 269 269 269 270 270 271
273 272 271 271 271 270 270 269 268 267 267 267 267 267 266 266 266 265 265 265 265 265 265 266 266 266 266 266 265 265 264 264 263 263 263 262 262 263 263 263 263 263 263 263 264 264 264 265 265 266 266 266 267 268 268 268 269 269 269 269 270 270
273 272 271 271 270 270 269 268 267 267 267 266 266 266 266 265 265 265 264 264 264 265 265 265 265 265 265 264 263 263 262 262 262 261 261 261 261 261 262 262 262 262 262 262 263 264 264 265 265 267 271 272 270 270 270 270 270 269 269 269 269 270
272 272 271 271 270 269 268 267 266 266 266 266 265 265 265 265 264 264 264 264 264 264 264 264 264 264 263 262 262 261 261 260 260 259 259 260 260 260 261 261 261 262 262 263 263 263 264 265 266 271 273 274 275 273 271 271 271 272 272 271 271 270
272 271 271 270 269 269 267 266 266 266 265 265 265 265 264 264 263 263 263 263 264 264 264 263 263 262 261 261 260 260 259 259 259 258 259 259 259 260 261 261 261 262 263 263 264 264 265 265 270 272 273 275 275 276 273 272 272 272 272 272 272 272
273 272 271 270 269 268 267 266 266 265 265 264 264 264 263 263 262 263 263 263 263 263 263 261 261 260 259 259 259 258 258 258 258 258 258 258 259 260 260 261 262 263 264 264 264 264 265 266 270 273 274 275 276 276 275 273 273 272 272 273 273 273
273 272 271 270 268 267 267 267 266 265 265 264 264 263 263 262 262 262 262 262 262 262 261 260 259 258 258 258 258 258 257 257 257 258 259 259 260 260 261 262 262 262 262 263 263 264 264 265 269 272 274 275 276 277 277 274 274 274 273 273 274 274
272 270 269 267 267 267 266 265 265 264 263 263 262 262 261 260 261 261 261 261 261 260 259 259 258 257 257 257 257 257 257 257 257 258 259 259 260 261 261 261 261 261 262 262 263 263 263 264 270 272 274 275 276 277 277 274 274 275 275 275 275 275
271 270 268 268 267 266 265 264 264 263 262 262 262 261 260 260 260 260 260 259 259 258 258 257 256 256 256 256 256 256 256 257 257 258 259 260 261 261 261 261 262 261 262 262 262 262 262 263 270 272 273 274 276 277 274 274 275 275 275 275 275 275
271 269 267 266 266 265 265 264 263 262 261 260 259 260 260 260 259 258 259 258 258 257 257 257 256 255 255 256 255 256 256 257 257 258 260 260 260 260 260 260 261 261 261 261 261 261 262 263 267 272 273 274 276 275 273 274 275 275 275 275 275 275
268 267 266 265 265 264 264 263 262 261 260 260 260 258 259 258 258 259 258 257 257 257 256 256 255 255 255 255 255 255 256 257 258 259 260 259 259 259 259 260 260 260 261 261 261 261 262 264 267 272 273 274 275 275 273 273 273 274 275 275 275 275
266 266 265 265 264 264 263 262 261 260 260 260 259 259 258 258 257 257 257 257 257 256 255 255 255 255 255 255 255 256 256 257 258 259 259 259 259 259 260 260 259 260 260 261 261 265 264 264 266 271 272 273 275 274 273 273 273 272 272 274 275 275
265 265 264 264 264 263 262 261 261 260 260 259 259 258 257 257 257 257 257 256 256 255 255 255 254 254 254 254 255 256 257 258 258 258 259 259 259 259 259 259 259 259 260 261 262 262 264 264 265 267 272 274 275 276 273 272 271 271 271 273 274 274
266 265 264 264 263 262 262 261 260 259 259 259 258 258 258 257 257 256 255 255 254 254 254 254 254 254 254 255 255 256 257 258 258 258 258 258 258 259 259 259 259 260 260 261 263 263 264 265 266 268 273 274 275 276 275 272 272 272 272 273 273 275
264 264 263 263 262 262 261 260 259 259 259 258 258 258 258 257 256 254 253 253 253 253 253 253 254 254 254 255 256 256 256 257 257 258 258 258 258 258 258 259 260 260 261 262 263 264 265 267 270 268 271 274 274 275 276 273 272 274 273 273 273 274
263 263 262 262 261 261 260 258 258 258 258 257 258 257 257 255 254 254 252 252 252 252 252 252 253 254 254 255 256 256 255 256 257 257 257 258 258 258 258 259 260 261 262 263 264 265 266 267 268 271 270 273 274 275 276 276 275 277 275 274 273 274
262 261 261 261 261 260 259 258 257 257 257 257 257 257 256 254 253 252 251 250 251 251 252 252 253 253 254 254 255 255 255 255 256 257 257 258 258 258 259 260 262 263 263 263 264 265 266 268 268 270 272 271 274 275 276 277 277 277 275 274 274 274
261 260 260 260 259 259 258 258 256 256 256 257 256 255 254 253 251 250 249 249 250 250 251 251 252 253 253 254 254 254 255 255 255 255 257 258 259 260 260 261 263 263 263 263 264 265 266 267 267 268 270 273 274 275 275 276 276 277 277 273 274 274
260 259 258 258 258 257 257 257 256 254 256 256 255 254 253 251 248 249 248 248 249 249 250 251 252 253 254 254 254 254 255 255 255 256 257 259 260 260 261 262 263 263 263 264 264 265 265 266 267 267 268 270 272 273 274 274 275 275 275 275 274 277
259 258 258 257 257 257 257 256 256 255 255 254 254 253 251 248 249 249 248 248 249 249 250 251 252 253 254 253 254 254 255 255 255 256 258 259 260 260 261 263 263 263 263 264 264 265 265 266 266 267 267 269 270 270 271 271 271 273 274 273 273 275
258 258 257 257 257 256 256 255 255 254 254 254 253 251 249 249 249 248 247 247 249 249 250 250 254 253 253 253 253 253 254 255 256 257 258 259 260 260 262 264 264 263 264 264 265 265 265 265 265 266 267 269 269 270 270 270 270 270 271 271 272 274
258 258 258 257 257 255 255 254 254 254 254 253 252 250 249 249 249 249 247 249 248 249 250 251 250 252 252 252 253 254 255 255 257 259 259 261 262 264 264 264 264 265 265 265 265 264 264 264 265 266 272 270 273 270 269 269 269 270 270 272 276 274
258 258 258 257 256 255 254 253 253 253 253 252 251 250 248 248 248 247 248 248 248 249 250 250 250 251 251 251 252 253 254 258 263 262 261 261 266 268 269 269 265 266 266 266 266 267 265 265 266 272 273 273 273 273 273 273 273 274 272 274 275 275
258 258 257 256 255 254 253 253 252 252 252 252 252 250 249 248 248 247 247 248 247 250 251 250 251 251 251 251 252 252 253 253 255 262 264 265 266 267 268 269 269 270 270 268 266 268 271 271 271 272 272 272 272 272 272 272 272 273 273 273 268 266
257 257 256 255 254 253 253 252 252 251 251 251 250 250 248 248 248 247 246 247 248 250 252 251 251 251 251 251 252 252 252 252 252 253 261 264 264 266 267 267 268 269 269 270 269 269 266 269 270 271 271 271 271 271 271 271 270 272 272 271 269 263
257 257 256 255 254 253 252 251 251 251 251 250 250 249 248 248 248 247 246 247 248 250 251 251 250 250 250 250 251 251 252 252 251 251 251 255 262 264 264 265 266 267 268 269 270 271 270 270 270 271 271 270 270 270 270 269 269 271 271 269 262 261
257 256 255 254 253 252 252 251 251 251 251 250 249 248 247 246 247 247 246 247 249 250 250 250 250 250 250 250 252 251 251 251 251 251 251 251 252 254 258 261 263 265 266 268 268 270 270 270 270 270 270 270 269 269 269 267 264 269 270 267 261 261
256 255 254 253 253 252 252 251 251 251 250 247 246 246 246 247 249 247 249 251 252 249 250 250 251 250 250 250 250 251 252 251 252 252 251 250 250 251 251 252 254 259 264 263 264 268 269 269 269 269 269 269 268 267 267 265 259 259 260 260 261 261
255 254 254 253 252 252 251 250 251 250 249 246 246 246 247 248 248 248 249 250 251 250 251 250 248 249 249 250 251 252 252 252 252 251 250 251 251 251 251 252 253 254 260 264 265 268 267 267 267 267 267 267 267 266 264 257 257 258 258 259 260 260
Wind_Speed
11 10 9 6 5 4 4 4 3 3 2 2 3 4 4 3 3 3 3 3 4 5 5 6 6 5 7 7 8 9 10 11 10 11 11 12 12 12 13 13 14 13 13 13 13 13 14 13 14 13 13 13 14 16 14 15 14 17 17 16 15 11
10 10 9 7 7 5 4 4 3 3 3 3 3 3 3 3 3 3 4 4 4 6 5 5 5 6 7 7 8 9 10 11 11 12 12 12 12 12 13 14 14 14 15 13 14 15 14 16 14 16 13 16 15 14 16 13 17 17 18 17 15 12
9 7 5 5 4 4 4 5 5 4 3 3 3 4 4 3 3 4 4 4 5 5 7 7 6 7 7 8 8 10 10 10 11 11 11 12 12 12 15 14 15 15 15 17 15 17 15 16 17 15 14 15 15 15 15 17 16 19 17 17 18 14
9 6 5 4 5 5 4 4 3 3 4 4 3 3 3 3 4 3 4 4 4 5 6 7 5 7 7 8 9 10 10 10 10 11 12 13 13 13 14 15 14 14 16 16 19 14 17 16 19 14 17 15 18 17 15 15 17 18 19 17 19 17
8 8 8 8 8 6 5 4 4 4 3 3 2 3 3 3 4 4 4 4 5 6 6 6 7 7 8 9 9 10 10 11 11 11 13 13 13 12 12 13 15 16 17 17 18 19 15 18 17 17 15 18 18 18 16 16 17 18 18 19 19 19
6 7 8 8 7 6 6 5 3 3 2 2 2 3 3 4 4 3 3 4 5 5 6 7 7 8 8 9 8 10 10 11 11 11 12 13 12 13 13 14 16 17 17 17 19 18 18 17 16 17 16 18 19 18 18 17 18 18 19 20 19 19
11 10 9 8 7 5 4 4 3 2 2 2 3 3 3 3 2 3 3 4 6 7 7 8 8 8 9 9 9 10 10 11 11 10 12 12 13 14 14 15 15 16 16 16 17 19 18 18 17 18 18 18 18 18 18 18 18 18 19 19 19 18
8 7 8 6 6 6 4 3 3 3 3 3 3 3 3 2 2 3 3 4 6 7 8 8 8 9 9 10 10 10 10 11 11 11 11 12 15 16 15 15 15 14 17 17 18 18 19 18 18 19 19 18 17 17 17 17 17 18 18 18 19 18
12 9 7 7 5 4 4 4 4 3 3 3 3 2 1 2 2 3 4 5 6 7 8 8 8 9 9 9 10 10 10 10 10 11 12 12 13 15 16 15 16 15 16 18 18 18 19 20 18 18 18 18 18 18 18 18 18 18 17 17 18 18
8 8 8 6 6 5 5 4 4 3 3 3 2 1 1 2 3 4 5 6 7 7 8 8 8 9 9 9 9 10 10 10 11 11 11 12 14 14 15 16 16 17 16 17 18 18 18 19 19 19 19 18 18 17 17 17 17 17 17 18 18 18
12 9 8 8 7 8 6 5 4 3 2 2 0 0 1 2 3 4 5 6 7 7 7 8 8 8 9 9 10 10 10 11 11 11 11 12 13 13 14 15 16 18 19 19 18 19 18 18 17 15 15 16 17 17 17 17 17 17 17 17 18 18
9 10 10 10 10 8 6 5 5 4 2 1 0 1 1 3 3 4 6 6 7 7 8 8 8 8 9 9 10 10 11 11 11 11 11 12 12 12 13 14 15 16 18 19 19 18 17 16 14 19 28 25 19 17 16 15 16 17 16 17 17 17
10 11 12 11 9 9 8 6 5 4 2 1 1 1 1 2 3 4 5 7 7 7 8 8 8 8 9 8 9 9 10 12 11 11 12 12 11 12 13 13 14 15 16 19 18 18 16 16 15 27 27 28 31 23 18 18 17 17 16 14 14 15
14 14 13 11 10 9 8 7 6 4 3 2 1 1 1 2 2 5 6 7 7 7 7 7 8 8 8 8 9 10 11 11 11 11 12 12 13 12 12 13 14 15 16 15 17 18 18 18 23 29 28 29 30 27 19 17 16 15 14 17 16 16
17 14 11 10 10 10 8 8 7 5 4 3 1 1 1 2 3 5 6 6 6 6 6 6 7 7 8 8 9 10 10 11 11 12 12 13 12 13 14 14 14 14 15 16 19 18 18 18 24 28 29 29 30 30 26 17 17 16 16 16 17 17
10 11 12 11 10 9 8 7 6 5 4 4 2 1 1 3 5 5 7 5 4 6 6 5 6 7 7 8 9 9 10 11 11 11 11 12 12 12 12 13 15 16 16 16 18 18 18 19 24 30 30 30 31 30 27 17 18 17 16 18 16 18
13 11 11 11 10 9 8 7 6 5 4 3 2 0 1 2 3 5 4 4 5 5 4 5 6 7 8 9 9 10 10 11 11 11 10 10 12 12 13 14 14 14 15 16 16 17 18 18 29 30 32 31 31 30 27 17 15 14 13 13 15 16
18 17 13 9 9 8 7 7 6 5 4 2 1 1 1 3 4 4 3 4 4 4 5 5 6 7 8 9 10 10 11 11 11 12 12 10 10 11 12 12 13 15 15 16 16 17 18 19 30 31 31 32 30 32 18 14 14 14 13 15 17 14
13 13 11 10 8 9 8 7 6 5 4 2 1 1 2 3 3 3 4 5 4 3 4 5 7 8 9 9 10 11 11 12 12 11 9 11 11 12 12 12 13 12 14 15 15 16 17 16 25 30 31 31 31 24 15 15 12 11 12 15 14 13
13 11 10 12 9 8 8 7 6 5 3 2 2 2 3 3 3 4 4 4 3 4 4 6 6 7 9 9 10 11 11 10 9 10 9 11 12 12 12 12 12 12 12 14 16 16 17 17 24 32 31 31 29 24 17 14 14 13 12 13 12 11
13 12 11 12 11 9 8 7 6 4 3 2 2 3 3 3 2 2 3 4 5 4 4 5 5 6 8 9 10 10 11 11 11 10 9 9 10 11 11 11 12 12 12 13 15 23 23 17 21 30 30 29 27 22 14 12 12 12 12 12 12 11
15 12 11 11 11 10 9 7 5 4 4 3 3 3 4 2 1 3 4 4 4 3 4 4 5 6 7 10 10 10 9 10 10 10 11 10 9 10 10 11 11 14 13 13 14 15 16 18 18 21 28 27 27 27 18 13 12 12 12 12 12 9
10 13 12 11 11 10 8 7 6 5 4 5 5 6 2 0 2 2 3 3 3 3 4 5 4 7 8 8 9 10 9 9 9 11 11 11 10 10 11 12 12 13 13 12 13 14 15 14 16 18 27 26 26 28 24 12 13 11 11 12 14 12
12 13 11 10 11 9 8 7 7 5 5 5 6 3 1 1 2 1 2 3 3 3 4 5 6 6 7 8 8 9 9 8 9 10 11 10 11 12 13 13 12 12 13 12 12 13 15 16 22 17 22 26 27 27 28 16 14 16 14 13 12 12
12 11 12 10 10 9 7 8 7 6 6 6 4 2 1 1 1 2 2 2 3 4 5 5 6 8 6 8 8 9 10 9 9 10 10 11 11 11 12 13 13 13 13 13 11 13 13 13 13 22 21 26 27 28 28 29 23 24 15 11 12 12
11 12 10 10 9 8 8 8 8 6 6 5 3 2 2 0 0 1 1 2 3 5 6 6 7 7 6 7 8 8 9 9 9 9 9 10 10 10 11 11 13 13 13 14 14 14 11 13 14 20 25 23 29 29 29 26 26 25 16 14 12 13
14 12 11 9 9 7 7 6 7 8 6 4 3 2 1 0 0 0 1 3 4 5 6 7 7 6 5 6 7 8 9 9 9 9 9 9 9 10 11 11 12 12 13 14 14 15 14 15 16 14 18 26 28 28 25 27 28 25 25 16 12 13
12 11 12 10 9 7 6 6 6 8 5 5 4 2 1 1 0 1 2 4 4 5 6 9 9 6 4 5 6 7 7 8 9 9 9 8 9 10 13 13 13 13 14 13 16 16 17 17 13 12 14 18 19 21 25 28 26 25 25 22 17 24
12 12 12 12 9 7 6 7 5 4 5 5 4 3 2 1 2 3 3 5 4 4 4 6 7 9 8 5 5 6 7 7 8 8 8 9 9 8 9 13 13 12 14 15 13 16 17 13 12 15 16 13 13 14 15 18 16 20 20 14 11 14
17 12 12 11 10 8 7 6 6 5 5 5 4 4 3 3 3 4 4 4 3 4 5 5 8 9 9 8 6 6 6 7 7 8 9 8 9 9 9 10 11 10 10 11 12 14 14 14 14 14 16 16 15 15 15 14 13 12 11 13 13 12
12 11 12 11 9 9 7 7 6 6 5 5 4 4 5 5 3 4 4 4 3 4 3 4 4 5 7 9 10 7 5 6 7 8 8 10 8 11 12 13 11 11 13 13 14 13 13 15 15 16 23 22 25 22 18 14 14 13 13 18 26 18
19 13 11 9 9 8 8 8 6 5 5 4 4 4 5 4 4 5 5 4 3 4 4 4 4 4 5 6 8 11 12 8 11 9 8 8 18 22 23 19 14 15 13 12 12 13 17 16 17 30 34 31 30 30 30 27 27 27 22 27 30 19
15 14 11 9 9 8 8 8 6 5 5 5 4 4 6 5 5 5 4 3 2 4 4 4 4 4 4 4 6 6 8 14 12 12 16 19 20 21 22 22 24 26 26 18 13 16 29 30 32 34 32 32 30 31 31 29 27 28 28 29 18 12
12 13 12 10 9 9 8 7 6 5 5 4 4 4 6 5 6 6 3 1 2 3 5 3 3 4 4 5 4 5 6 5 10 15 17 18 19 22 22 21 23 25 26 27 24 21 14 25 33 35 34 33 32 30 30 29 27 27 28 26 24 14
10 10 9 9 9 8 8 7 6 6 4 5 4 4 5 5 6 6 3 0 2 3 4 3 3 3 3 4 5 6 4 5 6 8 12 18 20 20 17 19 23 25 25 27 26 30 28 27 30 34 34 34 33 31 30 30 27 25 29 31 20 12
10 9 9 9 10 9 8 7 6 5 5 5 4 5 6 6 5 4 2 0 2 3 3 3 3 3 3 3 5 4 5 5 4 6 7 9 12 15 18 19 22 24 26 26 27 28 31 31 32 32 33 34 34 32 29 27 17 24 30 24 12 13
12 10 10 11 10 9 8 8 7 5 5 6 7 6 6 5 6 4 2 2 3 2 3 2 2 3 3 4 3 4 5 5 6 6 7 8 9 11 11 12 14 18 23 21 21 27 32 30 30 30 31 33 33 34 30 25 16 19 18 19 13 13
10 10 11 9 8 8 8 7 6 6 6 7 6 6 6 5 5 4 1 1 2 3 2 2 2 3 4 3 3 4 4 5 5 7 6 7 7 7 9 10 11 12 18 26 25 27 30 30 30 28 29 30 32 33 30 16 15 12 11 9 13 12
Wind_Direction
195 192 194 191 185 171 166 166 163 174 199 220 221 249 251 257 265 268 276 264 274 277 286 292 297 293 290 288 288 291 291 294 294 294 293 294 294 294 293 292 291 289 288 286 285 286 285 283 279 278 276 273 273 273 270 270 266 268 269 269 271 277
194 190 186 179 179 173 171 166 160 180 208 218 241 251 261 279 283 286 285 277 276 286 289 293 294 293 290 291 297 295 295 296 296 296 296 294 296 294 293 293 292 291 291 289 287 285 285 285 285 283 280 278 275 272 272 269 269 267 266 269 271 277
192 192 180 175 160 154 150 160 171 191 196 216 228 242 263 271 276 279 273 283 283 294 300 300 300 295 295 298 297 296 296 297 295 296 295 298 293 297 295 292 291 291 289 289 286 287 285 287 286 285 280 277 273 272 271 273 268 268 268 268 270 269
190 177 168 156 150 160 165 174 165 187 212 214 229 249 260 272 278 263 276 275 287 294 294 290 291 297 302 302 301 296 297 297 298 300 300 294 294 296 294 293 291 290 289 290 288 284 287 287 287 284 282 276 277 275 274 273 271 269 269 270 271 271
182 176 171 171 175 176 175 175 180 198 212 217 239 245 262 264 266 271 276 294 303 293 289 299 306 308 304 301 297 295 299 300 300 301 297 297 299 295 292 293 296 293 292 290 288 289 288 289 288 285 282 279 277 276 274 272 271 270 270 269 268 270
172 170 174 171 173 176 183 184 181 190 198 218 238 248 266 264 263 276 301 299 289 295 306 312 309 304 300 297 296 296 299 299 298 297 295 296 296 297 297 297 297 295 292 291 290 290 291 289 286 287 284 279 277 277 276 274 271 269 269 268 269 270
187 188 175 174 177 176 175 175 176 176 210 212 232 255 248 259 279 304 293 293 307 316 318 311 308 301 298 296 298 298 298 296 297 296 299 302 301 302 304 301 301 297 295 294 294 292 290 289 288 286 283 280 277 277 277 276 275 272 270 269 268 268
182 174 177 172 175 174 166 164 171 186 199 214 231 246 263 282 286 284 303 319 323 321 314 307 302 299 299 300 300 299 299 297 296 302 304 308 307 307 305 302 300 299 296 294 293 291 289 288 286 284 281 279 277 276 275 273 272 272 271 270 269 268
195 181 170 174 167 160 164 171 179 186 190 222 229 232 267 282 306 322 331 331 323 313 306 302 299 301 302 303 301 300 299 299 304 310 312 314 310 307 306 305 301 297 297 295 293 290 289 288 285 282 279 278 277 275 273 272 270 269 269 268 268 267
174 176 175 161 165 165 175 169 173 180 198 220 219 228 282 312 339 336 336 329 315 303 298 297 299 301 301 300 299 299 303 309 313 315 315 315 313 309 305 305 302 299 296 294 291 289 288 286 285 282 278 276 274 272 270 268 268 268 269 270 268 268
184 172 166 171 169 180 172 166 170 173 204 195 197 97 349 7 348 335 326 316 300 294 295 298 302 301 300 302 303 309 314 317 317 318 318 316 310 306 302 300 299 297 295 291 288 287 286 284 282 280 278 276 272 268 266 265 262 260 262 264 264 263
170 170 171 177 183 172 165 170 173 183 183 193 113 38 16 22 346 325 315 300 292 294 297 301 302 302 304 307 313 318 322 322 323 320 316 310 304 300 297 294 292 290 289 290 288 286 285 283 281 280 279 277 275 271 268 264 260 256 254 257 259 258
171 173 180 185 172 168 171 169 171 165 163 144 95 52 29 27 329 307 296 289 289 294 301 303 305 306 306 315 319 325 327 325 321 316 310 305 302 297 297 292 290 288 287 285 285 287 286 283 280 282 282 282 279 276 273 271 270 267 261 256 258 260
182 183 183 172 167 165 163 162 161 160 154 133 107 79 36 347 306 291 282 281 289 297 302 303 302 305 313 324 329 328 325 318 315 312 308 305 304 302 296 294 283 279 284 288 291 290 289 288 287 287 288 285 283 280 277 272 270 266 264 262 256 260
187 179 167 164 166 162 163 153 152 156 145 123 110 80 0 300 281 279 277 282 290 297 301 297 302 314 322 330 328 323 319 315 312 311 309 306 303 299 296 289 292 300 305 301 299 298 296 294 294 294 291 288 285 283 280 276 269 265 263 262 263 260
171 172 169 162 154 148 139 140 144 139 123 115 114 101 272 278 280 271 275 282 291 293 290 297 318 323 328 328 323 320 317 315 310 307 303 302 301 297 298 307 310 309 305 303 300 299 298 296 295 294 294 293 290 286 283 275 274 262 253 254 253 255
166 151 148 150 141 136 132 132 133 121 106 113 117 155 240 260 268 272 275 293 287 283 293 323 330 331 329 325 322 318 315 311 307 306 306 305 305 309 314 315 311 307 305 305 304 302 299 296 296 297 298 298 296 293 291 283 275 267 256 254 251 251
170 162 152 137 126 132 133 131 126 112 123 117 150 193 234 251 259 271 283 285 280 297 329 336 332 333 327 323 320 316 313 310 307 309 309 305 306 307 308 305 306 308 306 304 300 300 298 296 297 299 299 298 297 296 293 283 276 266 255 253 253 248
142 133 122 124 127 129 133 130 120 120 125 128 193 203 236 247 255 270 280 274 293 326 340 337 336 331 326 322 318 314 312 312 310 308 306 308 310 310 309 306 306 305 301 300 298 296 296 292 297 301 303 302 301 302 294 292 287 270 253 255 247 245
112 105 123 124 123 123 124 121 124 126 139 174 194 207 234 238 243 265 275 288 316 338 339 334 334 328 323 317 312 309 307 304 299 301 309 309 311 309 306 305 301 299 297 297 297 294 295 297 299 302 303 303 301 302 303 301 294 286 282 265 251 244
124 123 116 122 126 133 125 124 117 131 168 185 196 218 227 224 245 264 288 312 332 336 331 330 330 321 312 307 302 304 304 305 306 303 304 302 300 299 300 300 298 296 295 292 292 296 299 295 297 299 301 300 302 306 299 302 307 306 303 291 272 252
121 120 127 132 134 131 130 123 135 153 179 193 209 217 218 217 251 288 309 316 328 326 327 329 323 310 304 300 299 298 298 300 303 306 307 304 299 299 299 296 295 295 295 295 293 293 292 294 291 292 295 303 308 310 311 306 300 296 296 294 286 259
129 132 134 133 132 130 131 128 141 173 185 200 210 216 205 201 304 315 316 322 320 325 325 329 315 304 297 292 294 298 300 304 304 308 307 306 303 298 298 297 296 295 294 295 294 292 296 290 288 298 311 310 310 312 312 301 297 295 293 294 292 286
119 118 118 123 129 130 135 141 158 172 181 206 216 188 105 68 329 326 318 324 323 321 330 321 310 297 296 296 297 304 305 305 304 302 304 303 303 303 301 303 300 299 298 298 300 297 299 292 302 306 311 315 315 314 312 308 297 296 292 291 286 283
127 127 128 130 131 135 141 145 154 173 187 209 189 131 110 40 350 326 317 320 324 345 332 318 307 305 300 301 304 307 310 310 310 306 304 302 304 303 306 306 307 308 309 309 307 309 297 299 314 318 317 317 317 315 314 310 307 303 302 293 288 288
121 124 128 133 137 140 147 152 156 174 194 190 131 139 102 70 4 309 309 329 349 349 331 315 307 300 300 302 309 311 308 312 312 310 306 305 305 311 314 314 316 317 316 319 321 323 316 322 325 319 315 312 313 317 317 316 314 312 305 298 289 288
135 129 128 136 136 137 142 147 158 176 183 157 133 146 129 97 256 240 358 14 12 353 325 314 307 305 301 308 313 316 316 314 317 313 310 306 312 317 319 315 320 324 322 319 325 326 324 327 324 315 311 314 321 323 322 321 319 315 312 303 288 279
101 120 130 136 143 140 142 153 164 172 165 145 137 135 122 169 171 70 41 34 21 346 326 319 315 312 312 316 314 309 307 308 315 313 310 314 320 323 320 320 329 327 326 326 329 329 330 326 321 315 315 314 311 325 326 326 323 318 313 306 292 290
130 136 139 141 149 143 145 155 166 160 141 143 141 130 149 182 107 78 47 37 12 338 325 318 315 323 326 325 320 308 309 313 309 308 307 319 315 301 299 326 336 329 331 329 321 329 332 327 325 328 321 316 328 330 328 330 323 319 319 314 299 290
139 142 142 142 148 143 148 156 156 153 146 139 135 139 156 127 81 72 52 36 15 336 315 311 319 326 321 323 324 317 311 311 304 312 321 321 320 312 302 306 332 326 319 321 324 325 330 331 331 330 330 335 335 335 336 333 327 323 323 323 314 303
138 140 136 136 140 142 150 157 153 154 150 142 142 151 138 107 90 81 64 44 16 335 308 303 307 316 319 319 322 314 295 300 312 322 318 325 318 329 335 336 329 329 331 327 329 328 334 333 336 335 341 339 340 343 342 339 338 333 334 331 326 310
124 137 131 132 138 144 152 153 151 151 142 137 145 146 123 113 105 80 59 46 8 322 310 316 317 317 319 320 323 325 324 317 332 339 336 330 339 342 341 344 340 341 336 334 331 340 345 338 337 340 344 344 345 348 348 349 346 348 349 348 341 340
139 119 127 136 144 149 153 147 146 147 144 141 131 132 128 117 98 80 69 44 359 315 316 317 320 321 323 318 316 314 321 326 328 346 355 350 345 344 343 344 344 346 349 349 337 346 350 348 346 348 350 350 349 351 352 352 348 358 1 3 356 10
149 150 146 146 146 150 147 141 141 146 140 131 131 122 117 106 102 90 77 58 316 304 306 303 312 315 327 323 313 308 316 319 327 328 339 352 350 344 342 343 346 349 350 351 350 355 345 354 353 354 354 355 353 354 355 354 348 0 7 10 20 24
144 136 138 139 147 143 144 136 142 144 137 131 128 125 110 108 99 103 93 63 312 296 306 312 307 321 319 317 315 317 315 323 333 339 331 333 341 345 347 346 347 350 350 352 351 359 2 0 358 358 359 360 357 355 355 354 350 0 12 17 23 15
126 128 133 139 145 142 136 136 144 145 133 127 123 115 113 110 107 114 132 184 261 292 298 306 310 324 317 302 304 303 317 325 337 336 329 329 332 340 344 347 350 349 347 351 352 -0 3 2 0 1 2 3 2 358 357 355 344 11 22 24 16 9
127 131 144 144 142 141 140 138 143 136 127 124 128 114 109 113 102 110 69 309 296 274 276 295 323 315 307 300 309 316 329 331 340 342 339 340 335 335 336 331 334 340 347 352 351 1 3 0 360 1 3 7 6 3 356 355 2 10 1 10 8 3
129 135 145 143 138 138 132 133 139 131 124 123 127 115 113 111 96 94 80 277 281 274 261 321 296 315 302 294 317 318 326 330 341 345 339 332 328 327 328 326 333 328 336 349 350 359 1 358 358 359 2 4 9 10 3 3 356 356 358 351 0 352